This is the latest recevied weather packets stored in our database for station/object HG8LXL-2. If no packets are shown the sender has not sent any weather packets the latest 10 day(s).
| Time | Temp. | Humidity | Pressure | Rain* | Wind** | Luminosity | Snow |
|---|---|---|---|---|---|---|---|
| 1788335451 | 27.78° C | 29% | 1018.1 hPa | - | - | - | - |
| 1788335151 | 28.33° C | 28% | 1017.9 hPa | - | - | - | - |
| 1788334851 | 28.33° C | 29% | 1017.9 hPa | - | - | - | - |
| 1788334551 | 28.33° C | 29% | 1017.9 hPa | - | - | - | - |
| 1788334251 | 27.78° C | 28% | 1017.9 hPa | - | - | - | - |
| 1788333951 | 27.22° C | 29% | 1018 hPa | - | - | - | - |
| 1788333651 | 27.78° C | 29% | 1017.9 hPa | - | - | - | - |
| 1788333351 | 26.67° C | 30% | 1018 hPa | - | - | - | - |
| 1788333056 | 27.22° C | 30% | 1017.9 hPa | - | - | - | - |
| 1788332755 | 27.22° C | 30% | 1017.9 hPa | - | - | - | - |
| 1788332452 | 26.67° C | 31% | 1017.9 hPa | - | - | - | - |
| 1788332151 | 26.67° C | 30% | 1018 hPa | - | - | - | - |
| 1788331853 | 26.67° C | 31% | 1017.9 hPa | - | - | - | - |
| 1788331551 | 27.22° C | 31% | 1017.7 hPa | - | - | - | - |
| 1788331251 | 26.11° C | 31% | 1017.7 hPa | - | - | - | - |
| 1788330951 | 26.11° C | 32% | 1017.7 hPa | - | - | - | - |
| 1788330661 | 25.56° C | 35% | 1017.6 hPa | - | - | - | - |
| 1788330351 | 25° C | 37% | 1017.6 hPa | - | - | - | - |
| 1788330051 | 23.89° C | 36% | 1017.7 hPa | - | - | - | - |
| 1788329751 | 23.89° C | 37% | 1017.8 hPa | - | - | - | - |
| 1788329451 | 23.33° C | 38% | 1017.7 hPa | - | - | - | - |
| 1788329151 | 23.33° C | 38% | 1017.7 hPa | - | - | - | - |
| 1788328853 | 22.78° C | 39% | 1017.7 hPa | - | - | - | - |
| 1788328551 | 22.78° C | 41% | 1017.7 hPa | - | - | - | - |
| 1788328251 | 22.22° C | 42% | 1017.6 hPa | - | - | - | - |
* Rain since midnight (hover to see other rain measurements)
** Current wind speed in m/s (hover to see current wind gust speed)